Change the Weather History Date:

Monday, May 13, 2013

  Actual Average Record
Temperature  
Mean Temperature 47 °F -  
Max Temperature 48 °F 56 °F 81 °F (1968)
Min Temperature 46 °F 41 °F 30 °F (1999)
Degree Days  
Heating Degree Days 18    
Moisture  
Dew Point 46 °F    
Average Humidity 94    
Maximum Humidity 100    
Minimum Humidity 89    
Precipitation  
Precipitation 2.04 in - - ()
Sea Level Pressure  
Sea Level Pressure 29.76 in    
Wind  
Wind Speed 15 mph (SE)    
Max Wind Speed 22 mph    
Max Gust Speed 31 mph    
Visibility 6 miles    
Events Rain    
Averages and records for this station are not official NWS values.
T = Trace of Precipitation, MM = Missing Value Source: NWS Daily Summary

Daily Weather History Graph

Daily Weather History Graph

Search for Another Location

Airport or City:

Trip Planner

Search our weather history database for the weather conditions in past years. The results will help you decide how hot, cold, wet, or windy it might be!

Date:

Astronomy

May. 13, 2013 Rise Set
Actual Time 4:40 AM AKDT 8:47 PM AKDT
Civil Twilight 3:52 AM AKDT 9:35 PM AKDT
Nautical Twilight 2:41 AM AKDT 10:47 PM AKDT
Astronomical Twilight 1:15 AM AKDT 12:10 AM AKDT
Moon 7:29 AM AKDT (5/13) No Moon Set
Length of Visible Light 17h 43m
Length of Day
16h 07m
Waxing Crescent, 13% of the Moon is Illuminated
May 13
Waxing Crescent
May 17
First Quarter
May 24
Full
May 31
Last Quarter
Jun 8
New

Hourly Weather History & Observations

Time (AKDT) Temp. Windchill Dew Point Humidity Pressure Visibility Wind Dir Wind Speed Gust Speed Precip Events Conditions
12:53 AM 48.9 °F - 48.0 °F 97% 29.69 in 3.0 mi SE 13.8 mph 31.1 mph 0.10 in Rain Rain
1:53 AM 48.9 °F - 46.9 °F 93% 29.69 in 6.0 mi SE 13.8 mph 23.0 mph 0.04 in Rain Light Rain
2:53 AM 48.9 °F - 46.9 °F 93% 29.71 in 8.0 mi SE 18.4 mph 26.5 mph 0.05 in Rain Light Rain
3:15 AM 48.2 °F - 46.4 °F 93% 29.72 in 9.0 mi SE 18.4 mph 26.5 mph 0.02 in Rain Light Rain
3:53 AM 48.0 °F - 46.0 °F 93% 29.74 in 10.0 mi SE 19.6 mph 27.6 mph 0.04 in   Overcast
4:01 AM 48.2 °F - 46.4 °F 93% 29.74 in 10.0 mi SE 21.9 mph - 0.00 in Rain Light Rain
4:30 AM 48.2 °F - 46.4 °F 93% 29.74 in 10.0 mi SE 16.1 mph - 0.00 in   Overcast
4:51 AM 48.2 °F - 46.4 °F 93% 29.75 in 5.0 mi SE 18.4 mph 23.0 mph 0.03 in Rain Rain
4:53 AM 48.0 °F - 46.0 °F 93% 29.76 in 5.0 mi SE 17.3 mph 23.0 mph 0.03 in Rain Rain
5:02 AM 48.2 °F - 46.4 °F 93% 29.76 in 10.0 mi SE 16.1 mph - 0.00 in Rain Light Rain
5:34 AM 46.4 °F 40.7 °F 46.4 °F 100% 29.76 in 2.5 mi SE 12.7 mph - 0.01 in Rain Light Rain
5:36 AM 46.4 °F 41.1 °F 46.4 °F 100% 29.76 in 3.0 mi SE 11.5 mph - 0.01 in Rain Light Rain
5:53 AM 46.9 °F - 46.0 °F 97% 29.76 in 5.0 mi SE 12.7 mph - 0.02 in Rain Light Rain
6:01 AM 46.4 °F 40.4 °F 46.4 °F 100% 29.76 in 5.0 mi SE 13.8 mph 20.7 mph 0.00 in Rain Light Rain
6:53 AM 48.0 °F - 46.0 °F 93% 29.76 in 4.0 mi SE 12.7 mph 18.4 mph 0.08 in Rain Rain
7:53 AM 46.9 °F - 46.0 °F 97% 29.76 in 5.0 mi SE 11.5 mph - 0.24 in Rain Rain
8:53 AM 48.0 °F - 46.0 °F 93% 29.75 in 3.0 mi SE 16.1 mph 23.0 mph 0.10 in Rain Rain
9:53 AM 46.9 °F - 46.0 °F 97% 29.75 in 3.0 mi SE 12.7 mph - 0.20 in Rain Rain
10:53 AM 48.0 °F - 46.0 °F 93% 29.76 in 5.0 mi SE 16.1 mph 23.0 mph 0.18 in Rain Light Rain
12:53 PM 48.0 °F - 45.0 °F 89% 29.75 in 5.0 mi SE 12.7 mph - 0.13 in Rain Rain
1:53 PM 48.0 °F - 46.0 °F 93% 29.75 in 3.0 mi SE 10.4 mph - 0.19 in Rain Rain
2:32 PM 48.2 °F - 46.4 °F 93% 29.74 in 3.0 mi SE 10.4 mph - 0.16 in Rain Heavy Rain
2:53 PM 48.0 °F - 46.9 °F 96% 29.74 in 3.0 mi SE 16.1 mph 23.0 mph 0.28 in Rain Heavy Rain
2:55 PM 48.2 °F - 46.4 °F 93% 29.74 in 3.0 mi SE 18.4 mph 23.0 mph 0.01 in Rain Heavy Rain
2:58 PM 48.2 °F - 46.4 °F 93% 29.74 in 3.0 mi SE 18.4 mph 25.3 mph 0.03 in Rain Heavy Rain
3:53 PM 48.2 °F - 46.4 °F 93% 29.74 in 3.0 mi SE 12.7 mph - N/A Rain Light Rain
4:53 PM 48.9 °F - 46.9 °F 93% 29.75 in 3.0 mi SE 15.0 mph 24.2 mph 0.14 in Rain Rain
5:53 PM 48.9 °F - 46.9 °F 93% 29.75 in 3.0 mi SE 15.0 mph 24.2 mph 0.08 in Rain Light Rain
6:00 PM 48.2 °F - 46.4 °F 93% 29.75 in 5.0 mi SE 12.7 mph - 0.01 in Rain Light Rain
6:53 PM 48.9 °F - 46.9 °F 93% 29.76 in 4.0 mi SE 11.5 mph 20.7 mph 0.02 in Rain Light Rain
7:53 PM 48.0 °F - 46.9 °F 96% 29.77 in 5.0 mi SE 12.7 mph - 0.06 in Rain Light Rain
8:53 PM 48.0 °F - 46.9 °F 96% 29.79 in 8.0 mi SE 9.2 mph - 0.02 in Rain Light Rain
9:53 PM 48.0 °F - 46.9 °F 96% 29.81 in 10.0 mi SE 13.8 mph - 0.01 in   Overcast
10:00 PM 48.2 °F - 46.4 °F 93% 29.80 in 9.0 mi SE 9.2 mph - N/A   Overcast
10:18 PM 48.2 °F - 46.4 °F 93% 29.80 in 9.0 mi SE 12.7 mph - 0.00 in Rain Light Rain
10:25 PM 48.2 °F - 46.4 °F 93% 29.81 in 10.0 mi SE 10.4 mph - 0.00 in   Overcast
10:53 PM 48.0 °F - 46.9 °F 96% 29.82 in 6.0 mi SE 5.8 mph - 0.01 in Rain Light Rain
11:06 PM 46.4 °F 43.5 °F 46.4 °F 100% 29.83 in 10.0 mi SSE 5.8 mph - 0.00 in Rain Light Rain
11:53 PM 46.9 °F - 44.1 °F 90% 29.85 in 10.0 mi SE 9.2 mph - 0.02 in Rain Light Rain